• MPC Preparation (Info)

  • MPEC 2000-G06 : 2000 FL10

    The following Minor Planet Electronic Circular may be linked-to from your own Web pages, but must not otherwise be redistributed electronically.

    A form allowing access to any MPEC is at the bottom of this page.


    Read MPEC 2000-G05 Read MPEC 2000-G07


    M.P.E.C. 2000-G06                                Issued 2000 Apr. 2, 16:55 UT
    
         The Minor Planet Electronic Circulars contain information on unusual
             minor planets and routine data on comets.  They are published
       on behalf of Commission 20 of the International Astronomical Union by the
              Minor Planet Center, Smithsonian Astrophysical Observatory,
                              Cambridge, MA 02138, U.S.A.
    
                 Prepared using the Tamkin Foundation Computer Network
    
                 BMARSDEN@CFA.HARVARD.EDU or GWILLIAMS@CFA.HARVARD.EDU
              URL http://cfa-www.harvard.edu/iau/mpc.html  ISSN 1523-6714
    
                                       2000 FL10
    
    Observations:
         K00F10L* C2000 03 30.18433 10 08 02.56 -01 07 54.9          16.2 R      703
         K00F10L  C2000 03 30.19627 10 08 04.57 -01 06 48.5          16.2 R      703
         K00F10L  C2000 03 30.22742 10 08 09.82 -01 03 56.0          16.3 R      703
         K00F10L  C2000 03 30.23938 10 08 11.91 -01 02 50.1          16.0 R      703
         K00F10L  C2000 03 31.16350 10 10 55.25 +00 20 14.0                      703
         K00F10L  C2000 03 31.18713 10 10 59.11 +00 22 18.1                      703
         K00F10L 1C2000 03 31.18877 10 10 59.63 +00 22 20.6                      658
         K00F10L 1C2000 03 31.19212 10 11 00.18 +00 22 38.0                      658
         K00F10L 1C2000 03 31.19691 10 11 00.97 +00 23 03.2                      658
         K00F10L  C2000 03 31.37392 10 11 32.07 +00 38 58.6          16.0 R      428
         K00F10L  C2000 03 31.37751 10 11 32.71 +00 39 19.6          16.0 R      428
         K00F10L  C2000 03 31.38108 10 11 33.34 +00 39 38.8          16.0 R      428
         K00F10L  C2000 03 31.38461 10 11 33.91 +00 39 56.4          15.9 R      428
         K00F10L  C2000 03 31.77870 10 12 41.00 +01 13 02.2          15.0 R      046
         K00F10L  C2000 03 31.77944 10 12 41.12 +01 13 05.9                      046
         K00F10L  C2000 03 31.78023 10 12 41.24 +01 13 09.7                      046
         K00F10L  C2000 03 31.78100 10 12 41.37 +01 13 13.7                      046
         K00F10L  C2000 03 31.78183 10 12 41.50 +01 13 17.7          15.1 R      046
         K00F10L  C2000 03 31.78271 10 12 41.65 +01 13 22.4                      046
         K00F10L  C2000 04 01.17005 10 13 46.98 +01 45 48.0                      670
         K00F10L  C2000 04 01.26462 10 14 01.93 +01 53 34.5                      670
         K00F10L  C2000 04 01.29997 10 14 07.52 +01 56 28.8                      670
         K00F10L  C2000 04 01.41263 10 14 27.61 +02 06 10.2          16.5 R      428
         K00F10L  C2000 04 01.41623 10 14 28.20 +02 06 27.9          16.5 R      428
         K00F10L  C2000 04 01.41986 10 14 28.77 +02 06 45.3          16.5 R      428
         K00F10L  C2000 04 01.42346 10 14 29.33 +02 07 03.0          16.4 R      428
         K00F10L  C2000 04 01.82948 10 15 36.35 +02 39 07.3          14.6 R      151
         K00F10L  C2000 04 01.83205 10 15 36.81 +02 39 19.6          14.3 R      151
         K00F10L  C2000 04 01.83638 10 15 37.43 +02 39 40.7          14.2 R      151
         K00F10L  C2000 04 01.83914 10 15 37.77 +02 39 53.0          14.4 R      151
         K00F10L  C2000 04 01.84178 10 15 38.28 +02 40 06.4          15.9 R      151
         K00F10L  C2000 04 01.84458 10 15 38.63 +02 40 19.5          13.9 R      151
         K00F10L  C2000 04 01.85927 10 15 40.88 +02 41 28.6                      557
         K00F10L  C2000 04 01.86043 10 15 41.03 +02 41 34.2                      557
         K00F10L  C2000 04 01.86160 10 15 41.25 +02 41 39.8                      557
         K00F10L  C2000 04 01.86277 10 15 41.40 +02 41 45.7                      557
         K00F10L  C2000 04 02.00010 10 16 04.19 +02 53 08.1          16.0 V      860
         K00F10L  C2000 04 02.00171 10 16 04.48 +02 53 15.0          16.1 V      860
         K00F10L  C2000 04 02.00330 10 16 04.75 +02 53 23.0          16.2 V      860
         K00F10L  C2000 04 02.00490 10 16 05.00 +02 53 30.0          16.1 V      860
         K00F10L  C2000 04 02.00649 10 16 05.23 +02 53 37.6          16.1 V      860
         K00F10L  C2000 04 02.04712 10 16 11.40 +02 56 48.5          15.7 V      860
         K00F10L  C2000 04 02.05031 10 16 11.95 +02 57 05.2          15.4 V      860
         K00F10L  C2000 04 02.05192 10 16 12.22 +02 57 13.5          15.4 V      860
         K00F10L  C2000 04 02.17118 10 16 32.16 +03 06 03.3          16.0 V      713
         K00F10L  C2000 04 02.17428 10 16 32.12 +03 06 14.8                      750
         K00F10L  C2000 04 02.18242 10 16 33.46 +03 06 53.6          16.8        750
         K00F10L  C2000 04 02.18404 10 16 33.68 +03 07 00.2          16.9        750
         K00F10L  C2000 04 02.18507 10 16 34.30 +03 07 07.6          16.3 V      713
         K00F10L  C2000 04 02.19167 10 16 35.30 +03 07 38.4          16.2 V      713
         K00F10L  C2000 04 02.19286 10 16 35.08 +03 07 41.4                      750
         K00F10L  C2000 04 02.19896 10 16 36.40 +03 08 11.8          16.2 V      713
         K00F10L  C2000 04 02.20535 10 16 37.01 +03 08 39.9                      750
         K00F10L  C2000 04 02.20883 10 16 37.49 +03 08 55.6          16.8        750
         K00F10L  C2000 04 02.21924 10 16 39.20 +03 09 44.3          16.9        750
         K00F10L  C2000 04 02.22618 10 16 40.24 +03 10 16.6                      750
    
    Observer details:
    046 Klet.  Observers J. Ticha, M. Tichy.  0.57-m f/5.2 reflector + CCD.
    151 Eschenberg Observatory, Winterthur.  Observer M. Griesser.  0.25-m f/8.0
        reflector + CCD.
    428 Reedy Creek.  Observer J. Broughton.  0.25-m f/6.3 Schmidt-Cassegrain
        + CCD.
    557 Ondrejov.  Observer P. Kusnirak.  0.65-m f/3.6 reflector + CCD.
    658 Dominion Astrophysical Observatory.  Observer D. D. Balam.  1.82-m
        reflector + CCD.
    670 Camarillo.  Observer J. E. Rogers.  0.30-m f/6.7 Helin Telescope + CCD.
    703 Catalina Sky Survey.  Observer C. W. Hergenrother.  0.41-m f/3 Schmidt
        + CCD.
    713 Thornton.  Observer R. A. Koff.  0.20-m f/10 Schmidt-Cassegrain + CCD.
    750 Hobbs Observatory, Fall Creek.  Observer R. Elliott.  0.3-m f/3.3 reflector
        + CCD.
    860 Valinhos.  Observer P. R. Holvorcem.  0.36-m f/3.6 Schmidt-Cassegrain
        + CCD.
    
    Orbital elements:
    2000 FL10
    Epoch 2000 Mar. 17.0 TT = JDT 2451620.5                 Williams
    M  39.45835              (2000.0)            P               Q
    n   0.55593733     Peri.  258.89653     +0.08554884     -0.99454109
    a   1.4648241      Node   187.06866     +0.99234910     +0.07969565
    e   0.4264493      Incl.   29.04501     -0.08902057     -0.06735443
    P   1.77           H   16.8           G   0.15
    From 56 observations 2000 Mar. 30-Apr. 2.
    
    Ephemeris:
    2000 FL10                a,e,i = 1.46, 0.43, 29                  q = 0.8402
    Date    TT    R. A. (2000) Decl.     Delta      r     Elong.  Phase     V
    2000 03 27    09 57.98   -06 29.3    0.272    1.227   143.3    29.1    15.7
    2000 04 01    10 13.30   +01 31.9    0.312    1.260   142.2    29.1    16.0
    2000 04 06    10 26.37   +07 32.1    0.359    1.293   139.0    30.5    16.4
    2000 04 11    10 37.89   +11 56.2    0.412    1.326   135.1    32.3    16.9
    2000 04 16    10 48.31   +15 07.5    0.469    1.359   131.0    33.9    17.2
    2000 04 21    10 57.93   +17 24.5    0.530    1.391   127.1    35.2    17.6
    2000 04 26    11 06.97   +19 00.8    0.593    1.422   123.4    36.2    17.9
    2000 05 01    11 15.58   +20 06.1    0.659    1.453   119.9    37.0    18.2
    2000 05 06    11 23.91   +20 47.4    0.726    1.483   116.5    37.5    18.5
    2000 05 11    11 32.04   +21 10.1    0.795    1.513   113.3    37.8    18.7
    2000 05 16    11 40.02   +21 18.1    0.865    1.542   110.3    38.0    19.0
    2000 05 21    11 47.89   +21 14.3    0.936    1.570   107.3    38.0    19.2
    2000 05 26    11 55.69   +21 01.1    1.008    1.597   104.5    37.9    19.4
    2000 05 31    12 03.44   +20 40.2    1.080    1.624   101.7    37.7    19.5
    2000 06 05    12 11.17   +20 12.9    1.153    1.650    99.0    37.4    19.7
    
    2000 06 15    12 26.64   +19 03.8    1.298    1.700    93.8    36.6    20.0
    2000 06 25    12 42.15   +17 40.7    1.444    1.747    88.7    35.6    20.3
    2000 07 05    12 57.78   +16 08.1    1.587    1.791    83.8    34.4    20.5
    2000 07 15    13 13.59   +14 29.6    1.728    1.832    79.1    33.0    20.7
    2000 07 25    13 29.58   +12 47.8    1.866    1.869    74.4    31.6    20.9
    2000 08 04    13 45.81   +11 04.5    1.999    1.904    69.8    30.0    21.0
    2000 08 14    14 02.30   +09 21.7    2.127    1.936    65.3    28.4    21.1
    2000 08 24    14 19.07   +07 40.7    2.249    1.964    60.8    26.7    21.2
    
    Gareth V. Williams           (C) Copyright 2000 MPC           M.P.E.C. 2000-G06
    

    Read MPEC 2000-G05 Read MPEC 2000-G07


    MPEC number:

    Enter an MPEC number in one of the following forms:

    • 1997-B01 (the full form)
    • J97B01 (the packed version of the full form)
    • B01 (the abbreviated form)